Year,Month,Day,Hour,Minute,Value (Times are PST for temperature in C)
2013,04,14,00,00,3.20
2013,04,14,00,05,3.10
2013,04,14,00,06,3.10
2013,04,14,00,07,3.10
2013,04,14,00,08,3.10
2013,04,14,00,09,3.10
2013,04,14,00,10,3.10
2013,04,14,00,11,3.10
2013,04,14,00,12,3.10
2013,04,14,00,13,3.10
2013,04,14,00,14,3.10
2013,04,14,00,15,3.10
2013,04,14,00,16,3.10
2013,04,14,00,17,3.00
2013,04,14,00,18,3.00
2013,04,14,00,19,3.00
2013,04,14,00,20,2.90
2013,04,14,00,21,2.90
2013,04,14,00,22,2.80
2013,04,14,00,23,2.80
2013,04,14,00,24,2.80
2013,04,14,00,25,2.80
2013,04,14,00,26,2.70
2013,04,14,00,27,2.70
2013,04,14,00,28,2.70
2013,04,14,00,29,2.70
2013,04,14,00,30,2.70
2013,04,14,00,31,2.70
2013,04,14,00,32,2.70
2013,04,14,00,33,2.70
2013,04,14,00,34,2.70
2013,04,14,00,35,2.70
2013,04,14,00,36,2.70
2013,04,14,00,37,2.70
2013,04,14,00,38,2.60
2013,04,14,00,39,2.60
2013,04,14,00,40,2.60
2013,04,14,00,41,2.60
2013,04,14,00,42,2.60
2013,04,14,00,43,2.60
2013,04,14,00,44,2.60
2013,04,14,00,45,2.50
2013,04,14,00,46,2.50
2013,04,14,00,47,2.50
2013,04,14,00,48,2.50
2013,04,14,00,49,2.50
2013,04,14,00,50,2.50
2013,04,14,00,51,2.50
2013,04,14,00,52,2.50
2013,04,14,00,53,2.50
2013,04,14,00,54,2.50
2013,04,14,00,55,2.50
2013,04,14,00,56,2.50
2013,04,14,00,57,2.50
2013,04,14,00,58,2.50
2013,04,14,00,59,2.50
2013,04,14,01,00,2.40
2013,04,14,01,01,2.40
2013,04,14,01,02,2.40
2013,04,14,01,03,2.40
2013,04,14,01,04,2.40
2013,04,14,01,05,2.40
2013,04,14,01,06,2.40
2013,04,14,01,07,2.50
2013,04,14,01,08,2.50
2013,04,14,01,09,2.50
2013,04,14,01,10,2.50
2013,04,14,01,11,2.50
2013,04,14,01,12,2.50
2013,04,14,01,13,2.40
2013,04,14,01,14,2.40
2013,04,14,01,15,2.40
2013,04,14,01,16,2.40
2013,04,14,01,17,2.40
2013,04,14,01,18,2.40
2013,04,14,01,19,2.50
2013,04,14,01,20,2.50
2013,04,14,01,21,2.50
2013,04,14,01,22,2.50
2013,04,14,01,23,2.50
2013,04,14,01,24,2.50
2013,04,14,01,25,2.50
2013,04,14,01,26,2.50
2013,04,14,01,27,2.50
2013,04,14,01,28,2.40
2013,04,14,01,29,2.40
2013,04,14,01,30,2.50
2013,04,14,01,31,2.40
2013,04,14,01,32,2.40
2013,04,14,01,33,2.40
2013,04,14,01,34,2.40
2013,04,14,01,35,2.40
2013,04,14,01,36,2.30
2013,04,14,01,37,2.20
2013,04,14,01,38,2.20
2013,04,14,01,39,2.20
2013,04,14,01,40,2.20
2013,04,14,01,41,2.20
2013,04,14,01,42,2.10
2013,04,14,01,43,2.10
2013,04,14,01,44,2.00
2013,04,14,01,45,2.00
2013,04,14,01,46,2.00
2013,04,14,01,47,2.00
2013,04,14,01,48,2.00
2013,04,14,01,49,2.00
2013,04,14,01,50,2.00
2013,04,14,01,51,2.00
2013,04,14,01,52,2.00
2013,04,14,01,53,1.90
2013,04,14,01,54,1.90
2013,04,14,01,55,1.90
2013,04,14,01,56,2.00
2013,04,14,01,57,2.00
2013,04,14,01,58,2.00
2013,04,14,01,59,2.10
2013,04,14,02,00,2.10
2013,04,14,02,01,2.10
2013,04,14,02,02,2.10
2013,04,14,02,03,2.10
2013,04,14,02,04,2.10
2013,04,14,02,05,2.10
2013,04,14,02,06,2.10
2013,04,14,02,07,2.10
2013,04,14,02,08,2.10
2013,04,14,02,09,2.10
2013,04,14,02,10,2.10
2013,04,14,02,11,2.20
2013,04,14,02,12,2.20
2013,04,14,02,13,2.10
2013,04,14,02,14,2.10
2013,04,14,02,15,2.10
2013,04,14,02,16,2.10
2013,04,14,02,17,2.10
2013,04,14,02,18,2.10
2013,04,14,02,19,2.10
2013,04,14,02,20,2.10
2013,04,14,02,21,2.10
2013,04,14,02,22,2.10
2013,04,14,02,23,2.10
2013,04,14,02,24,2.10
2013,04,14,02,25,2.10
2013,04,14,02,26,2.10
2013,04,14,02,27,2.10
2013,04,14,02,28,2.10
2013,04,14,02,29,2.10
2013,04,14,02,30,2.10
2013,04,14,02,31,2.10
2013,04,14,02,32,2.10
2013,04,14,02,33,2.10
2013,04,14,02,34,2.10
2013,04,14,02,35,2.20
2013,04,14,02,36,2.20
2013,04,14,02,37,2.20
2013,04,14,02,38,2.10
2013,04,14,02,39,2.20
2013,04,14,02,40,2.10
2013,04,14,02,41,2.10
2013,04,14,02,42,2.10
2013,04,14,02,43,2.10
2013,04,14,02,44,2.10
2013,04,14,02,45,2.00
2013,04,14,02,46,2.00
2013,04,14,02,47,1.90
2013,04,14,02,48,1.90
2013,04,14,02,49,1.90
2013,04,14,02,50,1.90
2013,04,14,02,51,1.90
2013,04,14,02,52,1.90
2013,04,14,02,53,1.90
2013,04,14,02,54,1.90
2013,04,14,02,55,1.90
2013,04,14,02,56,1.90
2013,04,14,02,57,1.90
2013,04,14,02,58,1.90
2013,04,14,02,59,1.90
2013,04,14,03,00,1.80
2013,04,14,03,01,1.80
2013,04,14,03,02,1.80
2013,04,14,03,03,1.80
2013,04,14,03,04,1.80
2013,04,14,03,05,1.80
2013,04,14,03,06,1.80
2013,04,14,03,07,1.80
2013,04,14,03,08,1.80
2013,04,14,03,09,1.80
2013,04,14,03,10,1.80
2013,04,14,03,11,1.80
2013,04,14,03,12,1.80
2013,04,14,03,13,1.80
2013,04,14,03,14,1.80
2013,04,14,03,15,1.80
2013,04,14,03,16,1.80
2013,04,14,03,17,1.80
2013,04,14,03,18,1.80
2013,04,14,03,19,1.80
2013,04,14,03,20,1.80
2013,04,14,03,21,1.90
2013,04,14,03,22,1.90
2013,04,14,03,23,1.90
2013,04,14,03,24,1.80
2013,04,14,03,25,1.70
2013,04,14,03,26,1.70
2013,04,14,03,27,1.70
2013,04,14,03,28,1.70
2013,04,14,03,29,1.70
2013,04,14,03,30,1.70
2013,04,14,03,31,1.70
2013,04,14,03,32,1.70
2013,04,14,03,33,1.70
2013,04,14,03,34,1.70
2013,04,14,03,35,1.70
2013,04,14,03,36,1.70
2013,04,14,03,37,1.70
2013,04,14,03,38,1.60
2013,04,14,03,39,1.60
2013,04,14,03,40,1.60
2013,04,14,03,41,1.70
2013,04,14,03,42,1.70
2013,04,14,03,43,1.70
2013,04,14,03,44,1.80
2013,04,14,03,45,1.80
2013,04,14,03,46,1.80
2013,04,14,03,47,1.80
2013,04,14,03,48,1.80
2013,04,14,03,49,1.90
2013,04,14,03,50,1.90
2013,04,14,03,51,1.90
2013,04,14,03,52,2.00
2013,04,14,03,53,2.00
2013,04,14,03,54,2.00
2013,04,14,03,55,2.10
2013,04,14,03,56,2.10
2013,04,14,03,57,2.10
2013,04,14,03,58,2.20
2013,04,14,03,59,2.20
2013,04,14,04,00,2.20
2013,04,14,04,01,2.20
2013,04,14,04,02,2.20
2013,04,14,04,03,2.30
2013,04,14,04,04,2.30
2013,04,14,04,05,2.30
2013,04,14,04,06,2.30
2013,04,14,04,07,2.40
2013,04,14,04,08,2.40
2013,04,14,04,09,2.50
2013,04,14,04,10,2.60
2013,04,14,04,11,2.60
2013,04,14,04,12,2.60
2013,04,14,04,13,2.60
2013,04,14,04,14,2.70
2013,04,14,04,15,2.70
2013,04,14,04,16,2.70
2013,04,14,04,17,2.70
2013,04,14,04,18,2.70
2013,04,14,04,19,2.70
2013,04,14,04,20,2.70
2013,04,14,04,21,2.70
2013,04,14,04,22,2.70
2013,04,14,04,23,2.70
2013,04,14,04,24,2.80
2013,04,14,04,25,2.80
2013,04,14,04,26,2.80
2013,04,14,04,27,2.80
2013,04,14,04,28,2.80
2013,04,14,04,29,2.80
2013,04,14,04,30,2.90
2013,04,14,04,31,2.90
2013,04,14,04,32,2.90
2013,04,14,04,33,2.80
2013,04,14,04,34,2.80
2013,04,14,04,35,2.80
2013,04,14,04,36,2.80
2013,04,14,04,37,2.90
2013,04,14,04,38,2.90
2013,04,14,04,39,2.90
2013,04,14,04,40,2.90
2013,04,14,04,41,2.90
2013,04,14,04,42,2.90
2013,04,14,04,43,2.90
2013,04,14,04,44,2.90
2013,04,14,04,45,2.90
2013,04,14,04,46,2.90
2013,04,14,04,47,2.90
2013,04,14,04,48,2.90
2013,04,14,04,49,2.90
2013,04,14,04,50,2.90
2013,04,14,04,51,2.80
2013,04,14,04,52,2.90
2013,04,14,04,53,2.90
2013,04,14,04,54,2.90
2013,04,14,04,55,2.90
2013,04,14,04,56,2.80
2013,04,14,04,57,2.80
2013,04,14,04,58,2.80
2013,04,14,04,59,2.80
2013,04,14,05,00,2.80
2013,04,14,05,01,2.80
2013,04,14,05,02,2.70
2013,04,14,05,03,2.80
2013,04,14,05,04,2.80
2013,04,14,05,05,2.80
2013,04,14,05,06,2.80
2013,04,14,05,07,2.80
2013,04,14,05,08,2.80
2013,04,14,05,09,2.80
2013,04,14,05,10,2.80
2013,04,14,05,11,2.80
2013,04,14,05,12,2.80
2013,04,14,05,13,2.80
2013,04,14,05,14,2.80
2013,04,14,05,15,2.80
2013,04,14,05,16,2.80
2013,04,14,05,17,2.80
2013,04,14,05,18,2.80
2013,04,14,05,19,2.80
2013,04,14,05,20,2.80
2013,04,14,05,21,2.80
2013,04,14,05,22,2.80
2013,04,14,05,23,2.70
2013,04,14,05,24,2.70
2013,04,14,05,25,2.70
2013,04,14,05,26,2.70
2013,04,14,05,27,2.70
2013,04,14,05,28,2.70
2013,04,14,05,29,2.70
2013,04,14,05,30,2.70
2013,04,14,05,31,2.70
2013,04,14,05,32,2.70
2013,04,14,05,33,2.60
2013,04,14,05,34,2.60
2013,04,14,05,35,2.60
2013,04,14,05,36,2.60
2013,04,14,05,37,2.60
2013,04,14,05,38,2.60
2013,04,14,05,39,2.60
2013,04,14,05,40,2.60
2013,04,14,05,41,2.60
2013,04,14,05,42,2.60
2013,04,14,05,43,2.50
2013,04,14,05,44,2.50
2013,04,14,05,45,2.50
2013,04,14,05,46,2.50
2013,04,14,05,47,2.50
2013,04,14,05,48,2.40
2013,04,14,05,49,2.50
2013,04,14,05,50,2.40
2013,04,14,05,51,2.40
2013,04,14,05,52,2.50
2013,04,14,05,53,2.40
2013,04,14,05,54,2.50
2013,04,14,05,55,2.40
2013,04,14,05,56,2.40
2013,04,14,05,57,2.40
2013,04,14,05,58,2.40
2013,04,14,05,59,2.40
2013,04,14,06,00,2.40
2013,04,14,06,01,2.40
2013,04,14,06,02,2.40
2013,04,14,06,03,2.40
2013,04,14,06,04,2.40
2013,04,14,06,05,2.40
2013,04,14,06,06,2.40
2013,04,14,06,07,2.40
2013,04,14,06,08,2.40
2013,04,14,06,09,2.40
2013,04,14,06,10,2.40
2013,04,14,06,11,2.40
2013,04,14,06,12,2.40
2013,04,14,06,13,2.40
2013,04,14,06,14,2.40
2013,04,14,06,15,2.40
2013,04,14,06,16,2.30
2013,04,14,06,17,2.30
2013,04,14,06,18,2.30
2013,04,14,06,19,2.30
2013,04,14,06,20,2.30
2013,04,14,06,21,2.40
2013,04,14,06,22,2.40
2013,04,14,06,23,2.40
2013,04,14,06,24,2.40
2013,04,14,06,25,2.40
2013,04,14,06,26,2.40
2013,04,14,06,27,2.40
2013,04,14,06,28,2.40
2013,04,14,06,29,2.40
2013,04,14,06,30,2.40
2013,04,14,06,31,2.40
2013,04,14,06,32,2.40
2013,04,14,06,33,2.40
2013,04,14,06,34,2.40
2013,04,14,06,35,2.40
2013,04,14,06,36,2.40
2013,04,14,06,37,2.40
2013,04,14,06,38,2.40
2013,04,14,06,39,2.40
2013,04,14,06,40,2.40
2013,04,14,06,41,2.40
2013,04,14,06,42,2.40
2013,04,14,06,43,2.40
2013,04,14,06,44,2.40
2013,04,14,06,45,2.40
2013,04,14,06,46,2.40
2013,04,14,06,47,2.40
2013,04,14,06,48,2.40
2013,04,14,06,49,2.40
2013,04,14,06,50,2.40
2013,04,14,06,51,2.40
2013,04,14,06,52,2.40
2013,04,14,06,53,2.40
2013,04,14,06,54,2.40
2013,04,14,06,55,2.40
2013,04,14,06,56,2.40
2013,04,14,06,57,2.40
2013,04,14,06,58,2.40
2013,04,14,06,59,2.40
2013,04,14,07,00,2.40
2013,04,14,07,01,2.40
2013,04,14,07,02,2.40
2013,04,14,07,03,2.40
2013,04,14,07,04,2.40
2013,04,14,07,05,2.40
2013,04,14,07,06,2.40
2013,04,14,07,07,2.40
2013,04,14,07,08,2.50
2013,04,14,07,09,2.50
2013,04,14,07,10,2.50
2013,04,14,07,11,2.60
2013,04,14,07,12,2.60
2013,04,14,07,13,2.60
2013,04,14,07,14,2.60
2013,04,14,07,15,2.60
2013,04,14,07,16,2.60
2013,04,14,07,17,2.60
2013,04,14,07,18,2.70
2013,04,14,07,19,2.70
2013,04,14,07,20,2.70
2013,04,14,07,21,2.80
2013,04,14,07,22,2.80
2013,04,14,07,23,2.80
2013,04,14,07,24,2.80
2013,04,14,07,25,2.80
2013,04,14,07,26,2.80
2013,04,14,07,27,2.80
2013,04,14,07,28,2.90
2013,04,14,07,29,2.90
2013,04,14,07,30,2.90
2013,04,14,07,31,2.90
2013,04,14,07,32,3.00
2013,04,14,07,33,3.00
2013,04,14,07,34,3.00
2013,04,14,07,35,3.10
2013,04,14,07,36,3.10
2013,04,14,07,37,3.10
2013,04,14,07,38,3.20
2013,04,14,07,39,3.20
2013,04,14,07,40,3.20
2013,04,14,07,41,3.30
2013,04,14,07,42,3.30
2013,04,14,07,43,3.30
2013,04,14,07,44,3.40
2013,04,14,07,45,3.40
2013,04,14,07,46,3.40
2013,04,14,07,47,3.50
2013,04,14,07,48,3.50
2013,04,14,07,49,3.60
2013,04,14,07,50,3.60
2013,04,14,07,51,3.60
2013,04,14,07,52,3.70
2013,04,14,07,53,3.70
2013,04,14,07,54,3.70
2013,04,14,07,55,3.80
2013,04,14,07,56,3.80
2013,04,14,07,57,3.80
2013,04,14,07,58,3.90
2013,04,14,07,59,4.00
2013,04,14,08,00,4.00
2013,04,14,08,01,4.10
2013,04,14,08,02,4.10
2013,04,14,08,03,4.20
2013,04,14,08,04,4.20
2013,04,14,08,05,4.30
2013,04,14,08,06,4.30
2013,04,14,08,07,4.40
2013,04,14,08,08,4.50
2013,04,14,08,09,4.60
2013,04,14,08,10,4.60
2013,04,14,08,11,4.70
2013,04,14,08,12,4.70
2013,04,14,08,13,4.80
2013,04,14,08,14,4.80
2013,04,14,08,15,4.90
2013,04,14,08,16,4.90
2013,04,14,08,17,5.00
2013,04,14,08,18,5.10
2013,04,14,08,19,5.20
2013,04,14,08,20,5.30
2013,04,14,08,21,5.30
2013,04,14,08,22,5.40
2013,04,14,08,23,5.50
2013,04,14,08,24,5.50
2013,04,14,08,25,5.60
2013,04,14,08,26,5.60
2013,04,14,08,27,5.70
2013,04,14,08,28,5.80
2013,04,14,08,29,5.80
2013,04,14,08,30,5.90
2013,04,14,08,31,6.00
2013,04,14,08,32,6.10
2013,04,14,08,33,6.20
2013,04,14,08,34,6.30
2013,04,14,08,35,6.30
2013,04,14,08,36,6.40
2013,04,14,08,37,6.40
2013,04,14,08,38,6.40
2013,04,14,08,39,6.50
2013,04,14,08,40,6.50
2013,04,14,08,41,6.60
2013,04,14,08,42,6.70
2013,04,14,08,43,6.80
2013,04,14,08,44,6.90
2013,04,14,08,45,6.90
2013,04,14,08,46,6.90
2013,04,14,08,47,6.90
2013,04,14,08,48,6.90
2013,04,14,08,49,6.90
2013,04,14,08,50,6.90
2013,04,14,08,51,6.90
2013,04,14,08,52,6.90
2013,04,14,08,53,6.90
2013,04,14,08,54,6.80
2013,04,14,08,55,6.80
2013,04,14,08,56,6.80
2013,04,14,08,57,6.80
2013,04,14,08,58,6.70
2013,04,14,08,59,6.70
2013,04,14,09,00,6.70
2013,04,14,09,01,6.70
2013,04,14,09,02,6.60
2013,04,14,09,03,6.60
2013,04,14,09,04,6.60
2013,04,14,09,05,6.60
2013,04,14,09,06,6.70
2013,04,14,09,07,6.70
2013,04,14,09,08,6.60
2013,04,14,09,09,6.70
2013,04,14,09,10,6.60
2013,04,14,09,11,6.60
2013,04,14,09,12,6.60
2013,04,14,09,13,6.70
2013,04,14,09,14,6.70
2013,04,14,09,15,6.70
2013,04,14,09,16,6.70
2013,04,14,09,17,6.70
2013,04,14,09,18,6.70
2013,04,14,09,19,6.70
2013,04,14,09,20,6.70
2013,04,14,09,21,6.60
2013,04,14,09,22,6.50
2013,04,14,09,23,6.50
2013,04,14,09,24,6.40
2013,04,14,09,25,6.40
2013,04,14,09,26,6.30
2013,04,14,09,27,6.30
2013,04,14,09,28,6.30
2013,04,14,09,29,6.30
2013,04,14,09,30,6.30
2013,04,14,09,31,6.30
2013,04,14,09,32,6.30
2013,04,14,09,33,6.30
2013,04,14,09,34,6.30
2013,04,14,09,35,6.30
2013,04,14,09,36,6.30
2013,04,14,09,37,6.30
2013,04,14,09,38,6.30
2013,04,14,09,39,6.30
2013,04,14,09,40,6.20
2013,04,14,09,41,6.20
2013,04,14,09,42,6.20
2013,04,14,09,43,6.20
2013,04,14,09,44,6.20
2013,04,14,09,45,6.20
2013,04,14,09,46,6.20
2013,04,14,09,47,6.20
2013,04,14,09,48,6.20
2013,04,14,09,49,6.30
2013,04,14,09,50,6.30
2013,04,14,09,51,6.30
2013,04,14,09,52,6.30
2013,04,14,09,53,6.30
2013,04,14,09,54,6.40
2013,04,14,09,55,6.50
2013,04,14,09,56,6.60
2013,04,14,09,57,6.70
2013,04,14,09,58,6.70
2013,04,14,09,59,6.70
2013,04,14,10,00,6.70
2013,04,14,10,01,6.80
2013,04,14,10,02,6.90
2013,04,14,10,03,7.00
2013,04,14,10,04,7.20
2013,04,14,10,05,7.30
2013,04,14,10,06,7.30
2013,04,14,10,07,7.30
2013,04,14,10,08,7.30
2013,04,14,10,09,7.30
2013,04,14,10,10,7.40
2013,04,14,10,11,7.40
2013,04,14,10,12,7.50
2013,04,14,10,13,7.50
2013,04,14,10,14,7.50
2013,04,14,10,15,7.50
2013,04,14,10,16,7.40
2013,04,14,10,17,7.40
2013,04,14,10,18,7.30
2013,04,14,10,19,7.30
2013,04,14,10,20,7.30
2013,04,14,10,21,7.20
2013,04,14,10,22,7.10
2013,04,14,10,23,7.00
2013,04,14,10,24,7.00
2013,04,14,10,25,6.90
2013,04,14,10,26,6.90
2013,04,14,10,27,6.90
2013,04,14,10,28,6.90
2013,04,14,10,29,6.90
2013,04,14,10,30,6.90
2013,04,14,10,31,7.00
2013,04,14,10,32,6.90
2013,04,14,10,33,7.00
2013,04,14,10,34,7.00
2013,04,14,10,35,7.00
2013,04,14,10,36,7.00
2013,04,14,10,37,7.10
2013,04,14,10,38,7.10
2013,04,14,10,39,7.10
2013,04,14,10,40,7.10
2013,04,14,10,41,7.20
2013,04,14,10,42,7.20
2013,04,14,10,43,7.20
2013,04,14,10,44,7.20
2013,04,14,10,45,7.20
2013,04,14,10,46,7.20
2013,04,14,10,47,7.20
2013,04,14,10,48,7.20
2013,04,14,10,49,7.30
2013,04,14,10,50,7.30
2013,04,14,10,51,7.30
2013,04,14,10,52,7.30
2013,04,14,10,53,7.40
2013,04,14,10,54,7.40
2013,04,14,10,55,7.50
2013,04,14,10,56,7.60
2013,04,14,10,57,7.60
2013,04,14,10,58,7.60
2013,04,14,10,59,7.60
2013,04,14,11,00,7.60
2013,04,14,11,01,7.70
2013,04,14,11,02,7.80
2013,04,14,11,03,7.80
2013,04,14,11,04,7.90
2013,04,14,11,05,7.90
2013,04,14,11,06,7.90
2013,04,14,11,07,7.90
2013,04,14,11,08,7.90
2013,04,14,11,09,7.90
2013,04,14,11,10,7.90
2013,04,14,11,11,7.90
2013,04,14,11,12,7.90
2013,04,14,11,13,7.90
2013,04,14,11,14,7.70
2013,04,14,11,15,7.60
2013,04,14,11,16,7.50
2013,04,14,11,17,7.50
2013,04,14,11,18,7.60
2013,04,14,11,19,7.60
2013,04,14,11,20,7.60
2013,04,14,11,21,7.70
2013,04,14,11,22,7.80
2013,04,14,11,23,7.90
2013,04,14,11,24,7.80
2013,04,14,11,25,7.80
2013,04,14,11,26,7.80
2013,04,14,11,27,7.70
2013,04,14,11,28,7.80
2013,04,14,11,29,7.90
2013,04,14,11,30,7.90
2013,04,14,11,31,7.90
2013,04,14,11,32,7.90
2013,04,14,11,33,7.80
2013,04,14,11,34,7.80
2013,04,14,11,35,7.80
2013,04,14,11,36,7.90
2013,04,14,11,37,8.10
2013,04,14,11,38,8.10
2013,04,14,11,39,8.20
2013,04,14,11,40,8.20
2013,04,14,11,41,8.30
2013,04,14,11,42,8.20
2013,04,14,11,43,8.20
2013,04,14,11,44,8.20
2013,04,14,11,45,8.10
2013,04,14,11,46,8.10
2013,04,14,11,47,8.10
2013,04,14,11,48,8.00
2013,04,14,11,49,7.90
2013,04,14,11,50,7.90
2013,04,14,11,51,7.90
2013,04,14,11,52,7.90
2013,04,14,11,53,7.90
2013,04,14,11,54,7.90
2013,04,14,11,55,7.90
2013,04,14,11,56,7.90
2013,04,14,11,57,7.80
2013,04,14,11,58,7.80
2013,04,14,11,59,7.80
2013,04,14,12,00,7.90
2013,04,14,12,01,7.90
2013,04,14,12,02,8.00
2013,04,14,12,03,8.10
2013,04,14,12,04,8.20
2013,04,14,12,05,8.30
2013,04,14,12,06,8.40
2013,04,14,12,07,8.40
2013,04,14,12,08,8.50
2013,04,14,12,09,8.50
2013,04,14,12,10,8.60
2013,04,14,12,11,8.60
2013,04,14,12,12,8.60
2013,04,14,12,13,8.50
2013,04,14,12,14,8.40
2013,04,14,12,15,8.40
2013,04,14,12,16,8.50
2013,04,14,12,17,8.60
2013,04,14,12,18,8.60
2013,04,14,12,19,8.60
2013,04,14,12,20,8.70
2013,04,14,12,21,8.70
2013,04,14,12,22,8.60
2013,04,14,12,23,8.40
2013,04,14,12,24,8.30
2013,04,14,12,25,8.30
2013,04,14,12,26,8.30
2013,04,14,12,27,8.10
2013,04,14,12,28,8.10
2013,04,14,12,29,8.10
2013,04,14,12,30,8.20
2013,04,14,12,31,8.30
2013,04,14,12,32,8.40
2013,04,14,12,33,8.50
2013,04,14,12,34,8.60
2013,04,14,12,35,8.60
2013,04,14,12,36,8.50
2013,04,14,12,37,8.50
2013,04,14,12,38,8.60
2013,04,14,12,39,8.60
2013,04,14,12,40,8.70
2013,04,14,12,41,8.70
2013,04,14,12,42,8.70
2013,04,14,12,43,8.70
2013,04,14,12,44,8.70
2013,04,14,12,45,8.80
2013,04,14,12,46,8.80
2013,04,14,12,47,8.80
2013,04,14,12,48,8.80
2013,04,14,12,49,8.80
2013,04,14,12,50,8.80
2013,04,14,12,51,8.80
2013,04,14,12,52,8.80
2013,04,14,12,53,8.80
2013,04,14,12,54,8.80
2013,04,14,12,55,8.80
2013,04,14,12,56,8.70
2013,04,14,12,57,8.70
2013,04,14,12,58,8.80
2013,04,14,12,59,8.80
2013,04,14,13,00,8.80
2013,04,14,13,01,8.80
2013,04,14,13,02,8.70
2013,04,14,13,03,8.70
2013,04,14,13,04,8.60
2013,04,14,13,05,8.60
2013,04,14,13,06,8.70
2013,04,14,13,07,8.80
2013,04,14,13,08,9.00
2013,04,14,13,09,9.10
2013,04,14,13,10,9.10
2013,04,14,13,11,9.10
2013,04,14,13,12,9.00
2013,04,14,13,13,8.90
2013,04,14,13,14,8.90
2013,04,14,13,15,8.90
2013,04,14,13,16,9.00
2013,04,14,13,17,9.10
2013,04,14,13,18,9.10
2013,04,14,13,19,9.30
2013,04,14,13,20,9.40
2013,04,14,13,21,9.50
2013,04,14,13,22,9.60
2013,04,14,13,23,9.70
2013,04,14,13,24,9.70
2013,04,14,13,25,9.60
2013,04,14,13,26,9.60
2013,04,14,13,27,9.50
2013,04,14,13,28,9.40
2013,04,14,13,29,9.20
2013,04,14,13,30,9.20
2013,04,14,13,31,9.10
2013,04,14,13,32,9.10
2013,04,14,13,33,9.00
2013,04,14,13,34,9.00
2013,04,14,13,35,9.00
2013,04,14,13,36,9.10
2013,04,14,13,37,9.10
2013,04,14,13,38,9.20
2013,04,14,13,39,9.30
2013,04,14,13,40,9.30
2013,04,14,13,41,9.30
2013,04,14,13,42,9.30
2013,04,14,13,43,9.40
2013,04,14,13,44,9.50
2013,04,14,13,45,9.50
2013,04,14,13,46,9.60
2013,04,14,13,47,9.60
2013,04,14,13,48,9.50
2013,04,14,13,49,9.60
2013,04,14,13,50,9.60
2013,04,14,13,51,9.50
2013,04,14,13,52,9.50
2013,04,14,13,53,9.40
2013,04,14,13,54,9.40
2013,04,14,13,55,9.50
2013,04,14,13,56,9.70
2013,04,14,13,57,9.80
2013,04,14,13,58,9.90
2013,04,14,13,59,9.90
2013,04,14,14,00,9.80
2013,04,14,14,01,9.80
2013,04,14,14,02,9.80
2013,04,14,14,03,9.70
2013,04,14,14,04,9.70
2013,04,14,14,05,9.80
2013,04,14,14,06,9.80
2013,04,14,14,07,9.90
2013,04,14,14,08,10.00
2013,04,14,14,09,10.10
2013,04,14,14,10,10.20
2013,04,14,14,11,10.30
2013,04,14,14,12,10.30
2013,04,14,14,13,10.30
2013,04,14,14,14,10.30
2013,04,14,14,15,10.30
2013,04,14,14,16,10.20
2013,04,14,14,17,10.00
2013,04,14,14,18,10.00
2013,04,14,14,19,9.90
2013,04,14,14,20,9.90
2013,04,14,14,21,9.80
2013,04,14,14,22,9.70
2013,04,14,14,23,9.60
2013,04,14,14,24,9.50
2013,04,14,14,25,9.40
2013,04,14,14,26,9.40
2013,04,14,14,27,9.40
2013,04,14,14,28,9.40
2013,04,14,14,29,9.40
2013,04,14,14,30,9.40
2013,04,14,14,31,9.40
2013,04,14,14,32,9.50
2013,04,14,14,33,9.60
2013,04,14,14,34,9.60
2013,04,14,14,35,9.60
2013,04,14,14,36,9.60
2013,04,14,14,37,9.60
2013,04,14,14,38,9.60
2013,04,14,14,39,9.60
2013,04,14,14,40,9.60
2013,04,14,14,41,9.70
2013,04,14,14,42,9.70
2013,04,14,14,43,9.70
2013,04,14,14,44,9.60
2013,04,14,14,45,9.60
2013,04,14,14,46,9.60
2013,04,14,14,47,9.60
2013,04,14,14,48,9.70
2013,04,14,14,49,9.70
2013,04,14,14,50,9.70
2013,04,14,14,51,9.80
2013,04,14,14,52,9.70
2013,04,14,14,53,9.70
2013,04,14,14,54,9.70
2013,04,14,14,55,9.70
2013,04,14,14,56,9.70
2013,04,14,14,57,9.80
2013,04,14,14,58,9.80
2013,04,14,14,59,9.80
2013,04,14,15,00,9.80
2013,04,14,15,01,9.90
2013,04,14,15,02,10.00
2013,04,14,15,03,9.90
2013,04,14,15,04,9.90
2013,04,14,15,05,9.90
2013,04,14,15,06,10.00
2013,04,14,15,07,10.20
2013,04,14,15,08,10.30
2013,04,14,15,09,10.30
2013,04,14,15,10,10.30
2013,04,14,15,11,10.30
2013,04,14,15,12,10.20
2013,04,14,15,13,10.10
2013,04,14,15,14,10.00
2013,04,14,15,15,9.90
2013,04,14,15,16,9.80
2013,04,14,15,17,9.80
2013,04,14,15,18,9.70
2013,04,14,15,19,9.70
2013,04,14,15,20,9.70
2013,04,14,15,21,9.70
2013,04,14,15,22,9.70
2013,04,14,15,23,9.70
2013,04,14,15,24,9.70
2013,04,14,15,25,9.80
2013,04,14,15,26,9.80
2013,04,14,15,27,9.70
2013,04,14,15,28,9.70
2013,04,14,15,29,9.70
2013,04,14,15,30,9.70
2013,04,14,15,31,9.70
2013,04,14,15,32,9.60
2013,04,14,15,33,9.60
2013,04,14,15,34,9.60
2013,04,14,15,35,9.60
2013,04,14,15,36,9.60
2013,04,14,15,37,9.50
2013,04,14,15,38,9.40
2013,04,14,15,39,9.30
2013,04,14,15,40,9.30
2013,04,14,15,41,9.30
2013,04,14,15,42,9.40
2013,04,14,15,43,9.50
2013,04,14,15,44,9.60
2013,04,14,15,45,9.60
2013,04,14,15,46,9.60
2013,04,14,15,47,9.70
2013,04,14,15,48,9.70
2013,04,14,15,49,9.70
2013,04,14,15,50,9.70
2013,04,14,15,51,9.70
2013,04,14,15,52,9.70
2013,04,14,15,53,9.70
2013,04,14,15,54,9.80
2013,04,14,15,55,9.90
2013,04,14,15,56,10.00
2013,04,14,15,57,10.00
2013,04,14,15,58,10.00
2013,04,14,15,59,10.00
2013,04,14,16,00,10.00
2013,04,14,16,01,10.00
2013,04,14,16,02,10.10
2013,04,14,16,03,10.10
2013,04,14,16,04,10.10
2013,04,14,16,05,10.10
2013,04,14,16,06,10.00
2013,04,14,16,07,9.90
2013,04,14,16,08,9.90
2013,04,14,16,09,9.90
2013,04,14,16,10,9.90
2013,04,14,16,11,9.90
2013,04,14,16,12,9.90
2013,04,14,16,13,9.90
2013,04,14,16,14,9.90
2013,04,14,16,15,9.90
2013,04,14,16,16,9.90
2013,04,14,16,17,10.00
2013,04,14,16,18,10.00
2013,04,14,16,19,10.10
2013,04,14,16,20,10.10
2013,04,14,16,21,10.20
2013,04,14,16,22,10.30
2013,04,14,16,23,10.40
2013,04,14,16,24,10.40
2013,04,14,16,25,10.40
2013,04,14,16,26,10.40
2013,04,14,16,27,10.40
2013,04,14,16,28,10.40
2013,04,14,16,29,10.40
2013,04,14,16,30,10.40
2013,04,14,16,31,10.30
2013,04,14,16,32,10.30
2013,04,14,16,33,10.20
2013,04,14,16,34,10.10
2013,04,14,16,35,10.10
2013,04,14,16,36,10.10
2013,04,14,16,37,10.10
2013,04,14,16,38,10.10
2013,04,14,16,39,10.10
2013,04,14,16,40,10.10
2013,04,14,16,41,10.00
2013,04,14,16,42,10.00
2013,04,14,16,43,10.00
2013,04,14,16,44,10.00
2013,04,14,16,45,10.00
2013,04,14,16,46,10.10
2013,04,14,16,47,10.20
2013,04,14,16,48,10.20
2013,04,14,16,49,10.20
2013,04,14,16,50,10.20
2013,04,14,16,51,10.20
2013,04,14,16,52,10.20
2013,04,14,16,53,10.20
2013,04,14,16,54,10.20
2013,04,14,16,55,10.10
2013,04,14,16,56,10.10
2013,04,14,16,57,10.10
2013,04,14,16,58,10.10
2013,04,14,16,59,10.10
2013,04,14,17,00,10.10
2013,04,14,17,01,10.10
2013,04,14,17,02,10.10
2013,04,14,17,03,10.00
2013,04,14,17,04,10.00
2013,04,14,17,05,10.00
2013,04,14,17,06,10.00
2013,04,14,17,07,10.00
2013,04,14,17,08,10.00
2013,04,14,17,09,10.00
2013,04,14,17,10,10.00
2013,04,14,17,11,10.00
2013,04,14,17,12,10.00
2013,04,14,17,13,10.10
2013,04,14,17,14,10.10
2013,04,14,17,15,10.10
2013,04,14,17,16,10.10
2013,04,14,17,17,10.10
2013,04,14,17,18,10.10
2013,04,14,17,19,10.10
2013,04,14,17,20,10.10
2013,04,14,17,21,10.10
2013,04,14,17,22,10.00
2013,04,14,17,23,9.90
2013,04,14,17,24,9.90
2013,04,14,17,25,9.90
2013,04,14,17,26,10.00
2013,04,14,17,27,10.10
2013,04,14,17,28,10.10
2013,04,14,17,29,10.10
2013,04,14,17,30,10.10
2013,04,14,17,31,10.20
2013,04,14,17,32,10.20
2013,04,14,17,33,10.30
2013,04,14,17,34,10.40
2013,04,14,17,35,10.40
2013,04,14,17,36,10.40
2013,04,14,17,37,10.40
2013,04,14,17,38,10.30
2013,04,14,17,39,10.30
2013,04,14,17,40,10.30
2013,04,14,17,41,10.30
2013,04,14,17,42,10.20
2013,04,14,17,43,10.20
2013,04,14,17,44,10.10
2013,04,14,17,45,10.10
2013,04,14,17,46,10.10
2013,04,14,17,47,10.20
2013,04,14,17,48,10.30
2013,04,14,17,49,10.40
2013,04,14,17,50,10.40
2013,04,14,17,51,10.40
2013,04,14,17,52,10.40
2013,04,14,17,53,10.40
2013,04,14,17,54,10.40
2013,04,14,17,55,10.50
2013,04,14,17,56,10.60
2013,04,14,17,57,10.70
2013,04,14,17,58,10.70
2013,04,14,17,59,10.80
2013,04,14,18,00,10.90
2013,04,14,18,01,11.00
2013,04,14,18,02,11.10
2013,04,14,18,03,11.20
2013,04,14,18,04,11.30